Location: Kra?nica
(53.4833°N, 14.6167°E)
Time: 14:36:16
(UTC+00:00)

MOZHAYETS 4 - Visible Passes

Search period start: 04 October 2024 00:00
Search period end: 14 October 2024 00:00
Orbit: 649 x 667 km, 98.3° (Epoch: 04 October)

Date Brightness Start Highest point End Pass type
(mag) Time Alt. Az. Time Alt. Az. Time Alt. Az.
04 Oct 10.5 00:42:04 10° E 00:44:36 15° NE 00:47:09 10° NNE visible
04 Oct 7.7 02:19:57 59° SE 02:20:46 79° ENE 02:25:17 10° NNW visible
04 Oct 9.1 03:57:57 16° W 03:58:12 16° W 04:01:00 10° NW visible
04 Oct 10.4 17:17:05 10° N 17:20:26 21° WNW 17:23:48 10° WSW visible
05 Oct 9.9 01:11:49 19° E 01:13:26 23° ENE 01:17:00 10° N visible
05 Oct 7.6 02:49:48 58° WSW 02:49:58 59° WSW 02:54:26 10° NNW visible
05 Oct 10.7 17:47:04 10° NNW 17:49:15 13° NW 17:51:24 10° W visible
06 Oct 9.0 01:41:38 35° E 01:42:22 38° ENE 01:46:32 10° N visible
06 Oct 8.3 03:19:38 32° W 03:19:38 32° W 03:23:21 10° NNW visible
07 Oct 10.6 00:33:28 10° ENE 00:35:21 13° NE 00:37:21 10° NNE visible
07 Oct 7.9 02:11:27 65° ENE 02:11:27 65° ENE 02:15:51 10° N visible
07 Oct 9.1 03:49:27 19° WNW 03:49:27 19° WNW 03:51:56 10° NW visible
07 Oct 10.1 17:07:29 10° N 17:11:07 24° WNW 17:14:45 10° WSW visible
08 Oct 10.1 01:03:16 19° ENE 01:04:06 20° ENE 01:07:22 10° N visible
08 Oct 7.8 02:41:15 58° NW 02:41:15 58° NW 02:45:01 10° NNW visible
08 Oct 9.7 04:19:15 10° WNW 04:19:15 10° WNW 04:19:22 10° WNW visible
08 Oct 10.6 17:37:15 10° NNW 17:39:54 16° NW 17:42:34 10° W visible
09 Oct 9.3 01:33:03 32° ENE 01:33:03 32° ENE 01:36:56 10° N visible
09 Oct 8.5 03:11:02 32° WNW 03:11:02 32° WNW 03:13:59 10° NNW visible
10 Oct 10.8 00:24:52 10° ENE 00:25:58 11° NE 00:27:12 10° NNE visible
10 Oct 8.6 02:02:50 45° NNE 02:02:50 45° NNE 02:06:17 10° N visible
10 Oct 9.2 03:40:49 18° WNW 03:40:49 18° WNW 03:42:40 10° NW visible
10 Oct 9.8 16:57:47 10° N 17:01:40 29° WNW 17:05:32 10° WSW visible
11 Oct 10.3 00:54:36 17° NE 00:54:39 17° NE 00:57:35 10° NNE visible
11 Oct 8.5 02:32:36 39° NNW 02:32:36 39° NNW 02:35:27 10° NNW visible
11 Oct 9.7 04:10:34 10° WNW 04:10:34 10° WNW 04:10:42 10° WNW visible
11 Oct 10.5 17:27:23 10° NNW 17:30:28 18° NW 17:33:31 10° W visible
12 Oct 9.7 01:24:21 25° NE 01:24:21 25° NE 01:27:13 10° N visible
12 Oct 9.0 03:02:20 26° NW 03:02:20 26° NW 03:04:27 10° NNW visible
12 Oct 10.8 17:57:33 10° NNW 17:59:07 12° NW 18:00:42 10° WNW visible
13 Oct 9.3 01:54:05 29° NNE 01:54:05 29° NNE 01:56:35 10° N visible
13 Oct 9.5 03:32:04 16° NW 03:32:04 16° NW 03:33:12 10° NW visible
13 Oct 9.5 16:48:00 10° N 16:52:05 34° WNW 16:56:10 10° SW visible
